Lexington Weather

Lexington, Massachusetts, USA

36°F
1/28/2020 5:50am 
  • Lexington Conditions: Overcast
  • Temperature: 36.3°F / 2.4°CWarmer 0.3°F than last hour.
  • Dew Point: 29.8°FIncreased 0.3°Fsince last hour.
  • Relative Humidity: 77
  • Wind: Wind from NW NW Calm, 10-min avg: 1 mph, gust: 4 mph
  • Barometer: 29.64 inRising 0.02  inHg/hr Rising Slowly
  • Visibility: 10 miles
  • Rain Today: 0.00 in
  •   

Regional Weather Roundup
for Boston / Norton, MA

        
000
ASUS41 KBOX 271110
RWRBOX

REGIONAL WEATHER ROUNDUP
NATIONAL WEATHER SERVICE BOSTON/NORTON MA
600 AM EST MON JAN 27 2020

NOTE:  "FAIR" INDICATES FEW OR NO CLOUDS BELOW 12,000 FEET WITH NO 
SIGNIFICANT WEATHER AND/OR OBSTRUCTIONS TO VISIBILITY.

MAZALL-271200-
EASTERN MASSACHUSETTS
  
CITY           SKY/WX    TMP DP  RH WIND       PRES   REMARKS
BOSTON         MOCLDY    40  28  62 SW13      29.61S                  
BEVERLY        FAIR      35  28  75 SW7       29.59S WCI  29          
LAWRENCE       MOCLDY    35  27  72 S5        29.60S WCI  31          
BEDFORD        FAIR      37  27  67 SW7       29.59F WCI  32          
BLUE HILL        N/A     33  27  78 SW9       29.58S WCI  25          
NORWOOD        CLOUDY    39  28  64 SW7       29.61F                  
MARSHFIELD     CLOUDY    36  30  80 VRB7G15   29.62S WCI  30          
PLYMOUTH       CLOUDY    33  29  85 SW7       29.63S WCI  27          
TAUNTON        CLOUDY    34  28  79 SW6       29.63S WCI  29          
NEW BEDFORD    FAIR      33  28  81 SW8       29.63S WCI  26          
$$

MAZALL-271200-
CAPE COD AND THE ISLANDS
  
CITY           SKY/WX    TMP DP  RH WIND       PRES   REMARKS
FALMOUTH       CLEAR     34  32  93 W9        29.63S WCI  26          
HYANNIS        FAIR      35  30  82 SW8       29.62S WCI  29          
CHATHAM        FAIR      35  32  88 W5        29.64S WCI  31          
PROVINCETOWN   CLOUDY    38  32  79 W15       29.63S WCI  29          
NANTUCKET      FAIR      37  33  85 W9        29.65S WCI  30          
MARTHAS VNYRD  FAIR      37  32  82 W6        29.65S                  
$$
 
MAZALL-271200-
CENTRAL AND WESTERN MASSACHUSETTS
  
CITY           SKY/WX    TMP DP  RH WIND       PRES   REMARKS
WORCESTER      CLOUDY    33  27  78 W10       29.58S WCI  25          
FITCHBURG      CLOUDY    37  27  67 S5        29.59F                  
ORANGE         CLOUDY    37  28  70 SW6       29.60S                  
SPRINGFIELD    CLOUDY    34  28  77 SW7       29.61S WCI  28          
WESTFIELD      CLOUDY    35  27  72 SW9       29.62S WCI  28          
NORTH ADAMS    NOT AVBL                                               
PITTSFIELD     LGT SNOW  33  27  78 SW5       29.57S WCI  29          
$$
 
RIZALL-271200-
RHODE ISLAND
  
CITY           SKY/WX    TMP DP  RH WIND       PRES   REMARKS
PROVIDENCE     CLOUDY    34  28  79 W9        29.63F WCI  27          
NEWPORT        MOCLDY    36  28  73 VRB5      29.63F                  
BLOCK ISLAND   FAIR      36  30  79 W12G18    29.67F WCI  28          
SMITHFIELD     CLOUDY    32  29  88 SW6       29.62S WCI  26          
WESTERLY       FAIR      39  28  64 W8        29.66F                  
$$
 
CTZALL-271200-
CONNECTICUT
  
CITY           SKY/WX    TMP DP  RH WIND       PRES   REMARKS
BRADLEY INTL   MOCLDY    37  28  70 W13       29.63S WCI  29          
HARTFORD       CLOUDY    37  28  70 VRB5      29.65S                  
BRIDGEPORT     CLOUDY    37  29  72 W7        29.68F WCI  32          
DANBURY        CLOUDY    34  27  75 SW6       29.67S WCI  29          
GROTON         MOCLDY    36  29  75 W7        29.66S WCI  30          
NEW HAVEN      CLOUDY    38  29  70 W7        29.67S                  
CHESTER        NOT AVBL                                               
MERIDEN        CLOUDY    36  27  69 W5        29.66S                  
WILLIMANTIC    CLOUDY    34  28  79 SW3       29.65S                  
OXFORD         CLOUDY    33  28  81 W7        29.65S WCI  27          
$$

MEZ002-015-021-024-NHZ003-005-008-011-012-014-VTZ005-008-271200-
NORTHERN NEW ENGLAND
  
CITY           SKY/WX    TMP DP  RH WIND       PRES   REMARKS
PORTLAND ME    CLOUDY    35  27  72 SW5       29.53F WCI  31          
BANGOR ME      CLOUDY    33  30  88 SW3       29.48S                  
CONCORD NH     CLOUDY    37  27  67 SW3       29.56S                  
MANCHESTER NH  CLOUDY    37  28  70 S7        29.56S WCI  32          
NASHUA NH      CLOUDY    36  30  79 CALM      29.59S                  
PORTSMOUTH NH  CLOUDY    36  28  71 SW8       29.55F WCI  30          
JAFFREY NH     CLOUDY    34  28  79 S5        29.56S WCI  30          
KEENE NH       MOCLDY    33  30  88 S3        29.58F                  
BURLINGTON VT  FLURRIES  34  31  88 SW3       29.56R                  
MT. WASHINGTON SNOW      14  14 100 W53         N/A  VSB 1/16WCI -12  
$$

NYZ052-076-271200-
EASTERN NEW YORK
  
CITY           SKY/WX    TMP DP  RH WIND       PRES   REMARKS
ALBANY         FLURRIES  36  28  73 SW7       29.61F WCI  30          
NEW YORK CITY  MOCLDY    38  27  64 W15G22    29.70S WCI  29          
$$
 
ANZALL-271200-
MARINE OBSERVATIONS
  
STATION/POSITION TIME  TEMP    WIND        PRES    VSBY  WAVE
                       AIR SEA DIR/SP/G                  HT/PER
                 (UTC) (F)     (DEG/KT/KT) (MB)    (MI)  (FT/S)
BOSTON BUOY      1050   38 43  230/ 14/ 17 1002.1S         3/11
BUZZARDS BAY     1000   40     260/ 20/ 21 1004.2F
NANTUCKET SOUND  1040                        N/A           1/ 3
MASS BAY-STELLWA 1004   39 41  260/ 17/ 19 1000.3F  1 7/8  5/11
ISLE OF SHOALS   1000   38     230/ 15/ 17 1000.9F
S OF BLOCK IS    1100      44                N/A           5/10
$$

......................KEY.........................
  SKY/WX - SKY CONDITION/PRESENT WEATHER
  TMP    - TEMPERATURE IN FAHRENHEIT
  DWPT   - DEWPOINT IN FAHRENHEIT
  RH     - RELATIVE HUMIDITY IN PERCENT
  WIND   - DIRECTION AND SPEED IN MPH
  PRES   - MEAN SEA LEVEL PRESSURE IN INCHES OF HG
  WCI    - WIND CHILL INDEX
  VSB    - VISIBILITY IN MILES
  HX     - HEAT INDEX
  TC     - TEMPERATURE IN CELSIUS
  VRB    - VARIABLE WIND DIRECTION
  N/A    - NOT AVAILABLE
  
      

Other recent Regional Weather Roundups

Tue Jan 28, 5:10am

Tue Jan 28, 5:00am

Tue Jan 28, 4:10am

Tue Jan 28, 4:00am

Tue Jan 28, 3:10am

Tue Jan 28, 3:01am

Tue Jan 28, 2:10am

Tue Jan 28, 2:00am

Tue Jan 28, 1:10am

Tue Jan 28, 1:00am

Tue Jan 28, 12:10am

Tue Jan 28, 12:01am

Mon Jan 27, 11:10pm

Mon Jan 27, 11:00pm

Mon Jan 27, 10:10pm

Mon Jan 27, 10:00pm

Mon Jan 27, 9:10pm

Mon Jan 27, 9:00pm

Mon Jan 27, 8:10pm

Mon Jan 27, 8:01pm

Mon Jan 27, 7:10pm

Mon Jan 27, 7:00pm

Mon Jan 27, 6:10pm

Mon Jan 27, 6:00pm

Mon Jan 27, 5:10pm

Mon Jan 27, 5:00pm

Mon Jan 27, 4:10pm

Mon Jan 27, 4:00pm

Mon Jan 27, 3:10pm

Mon Jan 27, 3:00pm

Mon Jan 27, 2:10pm

Mon Jan 27, 2:00pm

Mon Jan 27, 1:10pm

Mon Jan 27, 1:00pm

Mon Jan 27, 12:10pm

Mon Jan 27, 12:00pm

Mon Jan 27, 11:10am

Mon Jan 27, 11:01am

Mon Jan 27, 10:10am

Mon Jan 27, 10:00am

Mon Jan 27, 9:10am

Mon Jan 27, 9:00am

Mon Jan 27, 8:10am

Mon Jan 27, 8:00am

Mon Jan 27, 7:10am

Mon Jan 27, 7:00am

Mon Jan 27, 6:00am

Mon Jan 27, 5:10am

Mon Jan 27, 5:00am

Mon Jan 27, 4:10am

Mon Jan 27, 4:01am

Mon Jan 27, 3:10am

Mon Jan 27, 3:00am

Mon Jan 27, 2:10am

Mon Jan 27, 2:00am

Mon Jan 27, 1:10am

Mon Jan 27, 1:00am

Mon Jan 27, 12:10am

Mon Jan 27, 12:00am

Sun Jan 26, 11:10pm

Sun Jan 26, 11:00pm

Sun Jan 26, 10:10pm

Sun Jan 26, 10:00pm

Sun Jan 26, 9:10pm

Sun Jan 26, 9:01pm

Sun Jan 26, 8:10pm

Sun Jan 26, 8:00pm

Sun Jan 26, 7:10pm

Sun Jan 26, 7:00pm

Sun Jan 26, 6:10pm

Sun Jan 26, 6:01pm

Sun Jan 26, 5:10pm

Sun Jan 26, 5:01pm

Sun Jan 26, 4:10pm

Sun Jan 26, 4:00pm

Sun Jan 26, 3:10pm

Sun Jan 26, 3:01pm

Sun Jan 26, 2:10pm

Sun Jan 26, 2:01pm

Sun Jan 26, 1:10pm

Sun Jan 26, 1:00pm

Sun Jan 26, 12:10pm

Sun Jan 26, 12:00pm

Sun Jan 26, 11:10am

Sun Jan 26, 11:01am

Sun Jan 26, 10:10am

Sun Jan 26, 10:01am

Sun Jan 26, 9:10am

Sun Jan 26, 9:00am

Sun Jan 26, 8:10am

Sun Jan 26, 8:00am

Sun Jan 26, 7:10am

Sun Jan 26, 7:00am

Sun Jan 26, 6:10am

Sun Jan 26, 6:00am

Sun Jan 26, 5:10am

Sun Jan 26, 5:00am

Sun Jan 26, 4:10am

Sun Jan 26, 4:01am

Sun Jan 26, 3:10am

Sun Jan 26, 3:01am

Sun Jan 26, 2:10am

Sun Jan 26, 2:00am

Sun Jan 26, 1:10am

Sun Jan 26, 1:00am

Sun Jan 26, 12:10am

Sun Jan 26, 12:00am

Sat Jan 25, 11:10pm

Sat Jan 25, 11:00pm

Sat Jan 25, 10:10pm

Sat Jan 25, 10:01pm

Sat Jan 25, 9:10pm

Sat Jan 25, 9:01pm

Sat Jan 25, 8:10pm

Sat Jan 25, 8:01pm

Sat Jan 25, 7:10pm

Sat Jan 25, 7:01pm

Sat Jan 25, 6:10pm

Sat Jan 25, 6:01pm

Sat Jan 25, 5:10pm

Sat Jan 25, 5:01pm

Sat Jan 25, 4:10pm

Sat Jan 25, 4:00pm

Sat Jan 25, 3:10pm

Sat Jan 25, 3:01pm

Sat Jan 25, 2:10pm

Sat Jan 25, 2:00pm

Sat Jan 25, 1:10pm

Sat Jan 25, 1:00pm

Sat Jan 25, 12:10pm

Sat Jan 25, 12:00pm

Sat Jan 25, 11:10am

Sat Jan 25, 11:00am

Sat Jan 25, 10:10am

Sat Jan 25, 10:00am

Sat Jan 25, 9:10am

Sat Jan 25, 9:00am

Sat Jan 25, 8:10am

Sat Jan 25, 8:01am

Sat Jan 25, 7:10am

Sat Jan 25, 7:00am

Sat Jan 25, 6:10am

Sat Jan 25, 6:00am

Meta data:

ID: e47b3121-7ffe-4f54-9d92-d89d3cb895cc
Link: https://api.weather.gov/products/e47b3121-7ffe-4f54-9d92-d89d3cb895cc